Home > Weather > Novorossiysk > Past weeks

Flag for Russia Weather for the Past 2 Weeks in Novorossiysk, Russia

Now
45 °F

Clear.


Feels Like: 45 °F
Forecast: 50 / 56 °F
Wind: 1 mph from North

Location: Anapa / Vitiazevo

Current Time: Feb 13, 2016 at 9:48:17 AM

Latest Report: Feb 13, 2016 at 9:00 AM


Visibility: 4 mi

Pressure: 29.98 "Hg

Humidity: 100%

Dew point: 45 °F

Location of NovorossiyskLocation

Historic Weather in Novorossiysk — Graph

°F

Novorossiysk Temperature Yesterday

Maximum temperature yesterday: 50 °F (at 8:30 PM)
Minimum temperature yesterday: 39 °F (at 3:00 AM)
Average temperature yesterday: 45 °F

High & Low Weather Summary for the Past Weeks

 TemperatureHumidityPressure
High63 °F (Feb 4, 1:00 PM)100% (Jan 29, 9:30 AM)30.42 "Hg (Jan 29, 9:30 AM)
Low21 °F (Feb 8, 6:30 AM)45% (Feb 4, 1:00 PM)29.83 "Hg (Feb 11, 2:30 PM)
Average40 °F86%30.13 "Hg
* Reported Jan 29 8:00 AM — Feb 13 8:30 AM, Novorossiysk, Weather by CustomWeather, © 2016

Note: Actual official high and low records may vary slightly from our data, if they occured in-between our weather recording intervals... More about our weather records

Advertising

Novorossiysk Weather History for the Previous 24 Hours

 ConditionsComfort  
Time TempWeatherWind HumidityBarometerVisibility
8:30 AM
Sat, Feb 13
43 °FFog.6 mph100%29.98 "Hg3 mi
8:00 AM41 °FQuite cool.6 mph100%30.01 "Hg0 mi
7:30 AM41 °FDrizzle. Fog.6 mph100%30.01 "Hg0 mi
7:00 AM41 °FFog.6 mph100%30.01 "Hg1 mi
6:30 AM41 °FFog.3 mph100%30.01 "Hg0 mi
6:00 AM41 °FFog.3 mph100%30.04 "Hg0 mi
5:00 AM41 °FFog.1 mph100%30.04 "Hg0 mi
4:30 AM43 °FFog.3 mph93%30.04 "Hg1 mi
4:00 AM45 °FQuite cool.6 mph93%30.01 "Hg2 mi
3:30 AM45 °FFog.6 mph93%30.04 "Hg1 mi
3:00 AM45 °FQuite cool.8 mph93%30.04 "Hg3 mi
2:30 AM45 °FQuite cool.8 mph93%30.04 "Hg4 mi
2:00 AM46 °FCool.8 mph93%30.01 "Hg4 mi
1:30 AM46 °FCool.8 mph93%30.01 "Hg6 mi
1:00 AM46 °FCool.8 mph93%30.01 "Hg5 mi
12:30 AM46 °FCool.8 mph100%30.01 "Hg3 mi
12:00 AM46 °FCool.8 mph100%30.01 "Hg4 mi
11:30 PM
Fri, Feb 12
48 °FCool.10 mph94%29.98 "Hg4 mi
11:00 PM48 °FCool.10 mph94%29.98 "Hg4 mi
10:30 PM48 °FCool.13 mph94%29.98 "Hg3 mi
10:00 PM48 °FCool.15 mph94%29.95 "Hg3 mi
9:30 PM48 °FCool.17 mph94%29.95 "Hg4 mi
9:00 PM50 °FCool.20 mph88%29.98 "Hg5 mi
8:30 PM50 °FCool.15 mph88%29.98 "Hg5 mi
8:00 PM48 °FSprinkles. Overcast.10 mph94%29.98 "Hg3 mi
7:30 PM48 °FSprinkles. Overcast.8 mph87%29.98 "Hg4 mi
7:00 PM48 °FPassing clouds.13 mph87%29.98 "HgN/A
6:30 PM46 °FPartly sunny.13 mph93%29.98 "HgN/A
6:00 PM46 °FSprinkles. Mostly cloudy.10 mph93%29.98 "Hg3 mi
5:30 PM45 °FSprinkles. More clouds than sun.10 mph93%29.98 "Hg5 mi
5:00 PM45 °FSprinkles. Mostly cloudy.13 mph93%29.98 "Hg3 mi
4:30 PM45 °FLight rain. Mostly cloudy.8 mph100%30.01 "Hg2 mi
4:00 PM45 °FLight rain. Mostly cloudy.8 mph93%30.01 "Hg3 mi
3:30 PM45 °FSprinkles. Partly sunny.6 mph93%30.01 "Hg2 mi
3:00 PM45 °FLight rain. Mostly cloudy.8 mph93%30.01 "Hg4 mi
2:30 PM45 °FLight rain. Mostly cloudy.3 mph93%30.04 "Hg6 mi
2:00 PM45 °FLight rain. Mostly cloudy.6 mph93%30.04 "Hg6 mi
1:30 PM45 °FLight rain. Mostly cloudy.3 mph93%30.04 "HgN/A
1:00 PM45 °FLight rain. Overcast.6 mph93%30.07 "HgN/A
12:30 PM45 °FLight rain. Overcast.6 mph93%30.07 "HgN/A
12:00 PM46 °FLight rain. More clouds than sun.6 mph87%30.07 "HgN/A
11:30 AM46 °FLight rain. Overcast.8 mph87%30.07 "HgN/A
11:00 AM46 °FLight rain. Cloudy.10 mph82%30.07 "HgN/A
10:30 AM46 °FScattered clouds.10 mph87%30.07 "HgN/A
10:00 AM46 °FPartly sunny.6 mph87%30.07 "HgN/A
9:30 AM45 °FPassing clouds.6 mph93%30.07 "HgN/A
9:00 AM45 °FScattered clouds.3 mph93%30.07 "HgN/A
Weather by CustomWeather, © 2016

See weather overviewHow to use our weather pages